sat.trackr.live / text

‹ back to catalog

STARLINK-35962

NORAD 66518 · 2025-265C

PAYLOAD ACTIVE UNKNOWN

§ Identity

Operator
Country
US
Launch date
2025-11-19
Launch site
AFETR
Launch vehicle
Mass (kg)
RCS (m²)

Purposes: comms

External: N2YO · Heavens-Above · Gunter

§ Orbital elements

Epoch: 2026-09-20T16:41:58.497216Z

Period
94.27 min
Inclination
43.0041°
Eccentricity
0.0001716
Mean motion
15.27591743 rev/d
Perigee alt
481.8 km
Apogee alt
484.2 km
Semi-major
6,861.2 km
B*
4.8979e-4
RAAN
256.9489°
Arg perigee
277.8155°
Mean anomaly
82.2501°
Rev number
4,693

§ Raw data

STARLINK-359621 66518U 25265C   26263.69581594  .00013245  00000+0  48979-3 0  99962 66518  43.0041 256.9489 0001716 277.8155  82.2501 15.27591743 46937

JSON: /api/v1/satellites/66518 · /tle

For live sub-satellite position, see the globe view (requires WebGL).

§ Visibility from observer

Set your observer location to see the next 7 days of passes ≥ 10°. The values pass through the URL so the page stays shareable.

No JS? Fill the form by hand. The geolocation button needs JavaScript.